Regional Weather Roundup
Issued by NWS

Home | Current Version | Previous Version | Text Only | Print | Product List | Glossary Off
Versions: 1 2 3 4 5 6 7 8 9 10 11 12 13 14 15 16 17 18 19 20 21 22 23 24 25 26 27 28 29 30 31 32 33 34 35 36 37 38 39 40 41 42 43 44 45 46 47 48 49 50

000
ASUS44 KMEG 261200
RWRTN
TENNESSEE HOURLY STATE WEATHER ROUNDUP
NATIONAL WEATHER SERVICE MEMPHIS TN
600 AM CST WED NOV 26 2014

TNZ002-004-019-021-049-052-054-088>092-261300-
WEST TENNESSEE

CITY           SKY/WX    TMP DP  RH WIND       PRES   REMARKS
MEMPHIS INTL   PTCLDY    34  26  72 SE3       30.14R
NWS MEMPHIS      N/A     29 N/A N/A MISG        N/A
JACKSON        CLEAR     24  21  88 CALM      30.16R
DYERSBURG      MOCLDY    27  16  63 SE3       30.15F
UNION CITY     CLEAR     23  21  93 CALM      30.13R
PARIS          CLEAR     23  21  93 CALM      30.13R
LEXINGTON      CLEAR     21  19  93 CALM      30.13R
SAVANNAH       CLEAR     21  21 100 CALM      30.15S
$$

TNZ008-025-027-028-033-062-065-066-261300-
NORTH MIDDLE TENNESSEE

CITY           SKY/WX    TMP DP  RH WIND       PRES   REMARKS
NASHVILLE      CLEAR     28  26  92 CALM      30.14R
CLARKSVILLE    CLEAR     23  21  92 CALM      30.13F FOG
COOKEVILLE     CLEAR     28  27  93 CALM      30.08R
CROSSVILLE     PTCLDY    34  26  72 NW7       30.04R WCI  28
$$

TNZ061-075-076-078-094-096-097-261300-
SOUTH MIDDLE TENNESSEE

CITY           SKY/WX    TMP DP  RH WIND       PRES   REMARKS
TULLAHOMA      CLEAR     27  21  80 NW5       30.10R WCI  21
WINCHESTER     CLEAR     28  27  93 CALM      30.10S
SHELBYVILLE    CLEAR     27  25  93 W7G17     30.12S WCI  19
$$

TNZ017-018-042-046-047-261300-
NORTHEAST TENNESSEE

CITY           SKY/WX    TMP DP  RH WIND       PRES   REMARKS
TRI CITIES     RAIN      41  39  93 N3        29.98R FOG
ELIZABETHTON   RAIN      39  37  93 CALM      29.98R FOG
$$

TNZ012-013-036-069-073-074-261300-
CENTRAL EAST TENNESSEE

CITY           SKY/WX    TMP DP  RH WIND       PRES   REMARKS
KNOXVILLE      PTCLDY    40  31  70 W8        30.02R WCI  34
OAK RIDGE      MOCLDY    41  32  70 SW3       30.04R
GATLINBURG     MOSUNNY   41  30  65 CALM      29.99R
$$

TNZ083-085-099-261300-
SOUTHEAST TENNESSEE

CITY           SKY/WX    TMP DP  RH WIND       PRES   REMARKS
CHATTANOOGA    PTCLDY    41  29  62 NW5       30.06R
$$

SKY/WX REPORTED AS FAIR MEANS FEW OR NO CLOUDS BELOW
12 THOUSAND FEET.




USA.gov is the U.S. government's official web portal to all federal, state and local government web resources and services.